Time,TemperatureF,DewpointF,PressureIn,WindDirection,WindDirectionDegrees,WindSpeedMPH,WindSpeedGustMPH,Humidity,HourlyPrecipIn,Conditions,Clouds,dailyrainin,SoftwareType,DateUTC
2013-03-09 00:00:00,38.5,9.8,30.29,SW,217,0.0,0.0,30,0.00,,,0.00,VWS V14.00,2013-03-09 05:00:00,
2013-03-09 00:01:00,38.5,9.8,30.29,SW,217,0.0,0.0,30,0.00,,,0.00,VWS V14.00,2013-03-09 05:01:00,
2013-03-09 00:06:00,38.1,9.4,30.29,SW,218,0.0,0.0,30,0.00,,,0.00,VWS V14.00,2013-03-09 05:06:00,
2013-03-09 00:11:00,37.9,9.3,30.29,SW,218,0.0,0.0,30,0.00,,,0.00,VWS V14.00,2013-03-09 05:11:00,
2013-03-09 00:16:00,38.1,9.4,30.29,SW,218,0.0,0.0,30,0.00,,,0.00,VWS V14.00,2013-03-09 05:16:00,
2013-03-09 00:21:00,37.9,9.3,30.29,West,264,0.0,0.0,30,0.00,,,0.00,VWS V14.00,2013-03-09 05:21:00,
2013-03-09 00:26:00,37.8,9.1,30.29,West,264,0.0,0.0,30,0.00,,,0.00,VWS V14.00,2013-03-09 05:26:00,
2013-03-09 00:32:00,37.4,8.8,30.29,West,264,0.0,0.0,30,0.00,,,0.00,VWS V14.00,2013-03-09 05:32:00,
2013-03-09 00:37:00,37.4,9.5,30.29,ESE,119,0.0,0.0,31,0.00,,,0.00,VWS V14.00,2013-03-09 05:37:00,
2013-03-09 00:42:00,37.0,9.2,30.29,South,169,0.0,0.0,31,0.00,,,0.00,VWS V14.00,2013-03-09 05:42:00,
2013-03-09 00:47:00,37.0,9.2,30.29,SW,231,0.0,0.0,31,0.00,,,0.00,VWS V14.00,2013-03-09 05:47:00,
2013-03-09 00:52:00,37.2,9.4,30.29,WSW,254,0.0,0.0,31,0.00,,,0.00,VWS V14.00,2013-03-09 05:52:00,
2013-03-09 00:57:00,37.2,9.4,30.29,WSW,254,0.0,0.0,31,0.00,,,0.00,VWS V14.00,2013-03-09 05:57:00,
2013-03-09 01:02:00,37.0,9.2,30.29,SSW,210,0.0,0.0,31,0.00,,,0.00,VWS V14.00,2013-03-09 06:02:00,
2013-03-09 01:07:00,36.9,9.8,30.29,West,268,0.0,0.0,32,0.00,,,0.00,VWS V14.00,2013-03-09 06:07:00,
2013-03-09 01:12:00,36.7,9.6,30.29,NE,51,2.7,2.7,32,0.00,,,0.00,VWS V14.00,2013-03-09 06:12:00,
2013-03-09 01:17:00,36.5,9.5,30.29,SE,144,0.0,0.0,32,0.00,,,0.00,VWS V14.00,2013-03-09 06:17:00,
2013-03-09 01:22:00,36.3,9.3,30.32,SE,144,0.0,0.0,32,0.00,,,0.00,VWS V14.00,2013-03-09 06:22:00,
2013-03-09 01:27:00,36.3,9.3,30.32,SSE,147,0.0,0.0,32,0.00,,,0.00,VWS V14.00,2013-03-09 06:27:00,
2013-03-09 01:32:00,36.1,9.8,30.32,ESE,109,0.0,0.0,33,0.00,,,0.00,VWS V14.00,2013-03-09 06:32:00,
2013-03-09 01:37:00,36.1,9.8,30.32,SSE,167,0.0,0.0,33,0.00,,,0.00,VWS V14.00,2013-03-09 06:37:00,
2013-03-09 01:42:00,36.0,9.7,30.32,SSE,167,0.0,0.0,33,0.00,,,0.00,VWS V14.00,2013-03-09 06:42:00,
2013-03-09 01:47:00,36.0,9.7,30.32,SE,145,0.0,0.0,33,0.00,,,0.00,VWS V14.00,2013-03-09 06:47:00,
2013-03-09 01:52:00,36.0,9.7,30.32,SE,144,0.0,0.0,33,0.00,,,0.00,VWS V14.00,2013-03-09 06:52:00,
2013-03-09 01:57:00,35.8,10.2,30.32,West,269,0.0,0.0,34,0.00,,,0.00,VWS V14.00,2013-03-09 06:57:00,
2013-03-09 02:02:00,36.1,10.5,30.32,West,269,0.0,0.0,34,0.00,,,0.00,VWS V14.00,2013-03-09 07:02:00,
2013-03-09 02:07:00,36.3,10.6,30.29,West,269,0.0,0.0,34,0.00,,,0.00,VWS V14.00,2013-03-09 07:07:00,
2013-03-09 02:12:00,36.3,10.6,30.29,West,268,0.0,0.0,34,0.00,,,0.00,VWS V14.00,2013-03-09 07:12:00,
2013-03-09 02:17:00,36.5,10.1,30.29,WSW,257,0.0,0.0,33,0.00,,,0.00,VWS V14.00,2013-03-09 07:17:00,
2013-03-09 02:22:00,36.3,10.0,30.29,WSW,257,0.0,0.0,33,0.00,,,0.00,VWS V14.00,2013-03-09 07:22:00,
2013-03-09 02:27:00,36.3,10.0,30.29,WSW,257,0.0,0.0,33,0.00,,,0.00,VWS V14.00,2013-03-09 07:27:00,
2013-03-09 02:32:00,36.1,9.8,30.29,WSW,257,0.0,0.0,33,0.00,,,0.00,VWS V14.00,2013-03-09 07:32:00,
2013-03-09 02:37:00,36.0,9.7,30.29,WSW,257,0.0,0.0,33,0.00,,,0.00,VWS V14.00,2013-03-09 07:37:00,
2013-03-09 02:42:00,35.6,9.4,30.29,WSW,257,0.0,0.0,33,0.00,,,0.00,VWS V14.00,2013-03-09 07:42:00,
2013-03-09 02:47:00,35.2,9.0,30.29,WSW,257,0.0,0.0,33,0.00,,,0.00,VWS V14.00,2013-03-09 07:47:00,
2013-03-09 02:52:00,35.2,9.0,30.26,WSW,257,0.0,0.0,33,0.00,,,0.00,VWS V14.00,2013-03-09 07:52:00,
2013-03-09 02:57:00,35.1,8.9,30.26,WSW,257,0.0,0.0,33,0.00,,,0.00,VWS V14.00,2013-03-09 07:57:00,
2013-03-09 03:02:00,34.9,8.7,30.26,WSW,257,0.0,0.0,33,0.00,,,0.00,VWS V14.00,2013-03-09 08:02:00,
2013-03-09 03:07:00,34.7,8.6,30.26,WSW,257,0.0,0.0,33,0.00,,,0.00,VWS V14.00,2013-03-09 08:07:00,
2013-03-09 03:13:00,34.5,8.4,30.26,WSW,257,0.0,0.0,33,0.00,,,0.00,VWS V14.00,2013-03-09 08:13:00,
2013-03-09 03:18:00,34.5,8.4,30.26,WSW,257,0.0,0.0,33,0.00,,,0.00,VWS V14.00,2013-03-09 08:18:00,
2013-03-09 03:23:00,34.3,8.9,30.26,WSW,257,0.0,0.0,34,0.00,,,0.00,VWS V14.00,2013-03-09 08:23:00,
2013-03-09 03:28:00,34.3,8.9,30.26,WSW,257,0.0,0.0,34,0.00,,,0.00,VWS V14.00,2013-03-09 08:28:00,
2013-03-09 03:33:00,34.3,8.9,30.29,WSW,257,0.0,0.0,34,0.00,,,0.00,VWS V14.00,2013-03-09 08:33:00,
2013-03-09 03:38:00,34.3,8.9,30.29,WSW,257,0.0,0.0,34,0.00,,,0.00,VWS V14.00,2013-03-09 08:38:00,
2013-03-09 03:43:00,34.3,8.9,30.29,WSW,257,0.0,0.0,34,0.00,,,0.00,VWS V14.00,2013-03-09 08:43:00,
2013-03-09 03:48:00,34.3,8.9,30.29,WSW,257,0.0,0.0,34,0.00,,,0.00,VWS V14.00,2013-03-09 08:48:00,
2013-03-09 03:53:00,34.3,8.9,30.29,WSW,257,0.0,0.0,34,0.00,,,0.00,VWS V14.00,2013-03-09 08:53:00,
2013-03-09 03:58:00,34.3,9.5,30.29,WSW,257,0.0,0.0,35,0.00,,,0.00,VWS V14.00,2013-03-09 08:58:00,
2013-03-09 04:03:00,34.5,9.7,30.29,WSW,257,0.0,0.0,35,0.00,,,0.00,VWS V14.00,2013-03-09 09:03:00,
2013-03-09 04:08:00,34.5,9.7,30.29,WSW,257,0.0,0.0,35,0.00,,,0.00,VWS V14.00,2013-03-09 09:08:00,
2013-03-09 04:13:00,34.3,9.5,30.29,WSW,257,0.0,0.0,35,0.00,,,0.00,VWS V14.00,2013-03-09 09:13:00,
2013-03-09 04:18:00,34.2,8.7,30.29,WSW,257,0.0,0.0,34,0.00,,,0.00,VWS V14.00,2013-03-09 09:18:00,
2013-03-09 04:23:00,34.0,8.6,30.29,WSW,257,0.0,0.0,34,0.00,,,0.00,VWS V14.00,2013-03-09 09:23:00,
2013-03-09 04:28:00,34.0,9.2,30.29,WSW,257,0.0,0.0,35,0.00,,,0.00,VWS V14.00,2013-03-09 09:28:00,
2013-03-09 04:33:00,34.0,9.2,30.29,WSW,257,0.0,0.0,35,0.00,,,0.00,VWS V14.00,2013-03-09 09:33:00,
2013-03-09 04:38:00,34.0,9.2,30.29,WSW,257,0.0,0.0,35,0.00,,,0.00,VWS V14.00,2013-03-09 09:38:00,
2013-03-09 04:43:00,34.0,9.2,30.29,WSW,257,0.0,0.0,35,0.00,,,0.00,VWS V14.00,2013-03-09 09:43:00,
2013-03-09 04:48:00,33.8,9.1,30.29,WSW,257,0.0,0.0,35,0.00,,,0.00,VWS V14.00,2013-03-09 09:48:00,
2013-03-09 04:53:00,33.8,9.1,30.29,WSW,257,0.0,0.0,35,0.00,,,0.00,VWS V14.00,2013-03-09 09:53:00,
2013-03-09 04:58:00,33.6,9.5,30.29,WSW,257,0.0,0.0,36,0.00,,,0.00,VWS V14.00,2013-03-09 09:58:00,
2013-03-09 05:03:00,33.6,9.5,30.29,WSW,257,0.0,0.0,36,0.00,,,0.00,VWS V14.00,2013-03-09 10:03:00,
2013-03-09 05:08:00,33.8,9.7,30.29,WSW,257,0.0,0.0,36,0.00,,,0.00,VWS V14.00,2013-03-09 10:08:00,
2013-03-09 05:13:00,33.6,9.5,30.29,WSW,257,0.0,0.0,36,0.00,,,0.00,VWS V14.00,2013-03-09 10:13:00,
2013-03-09 05:18:00,33.6,9.5,30.29,WSW,257,0.0,0.0,36,0.00,,,0.00,VWS V14.00,2013-03-09 10:18:00,
2013-03-09 05:23:00,33.6,9.5,30.29,WSW,257,0.0,0.0,36,0.00,,,0.00,VWS V14.00,2013-03-09 10:23:00,
2013-03-09 05:28:00,33.6,10.1,30.29,WSW,257,0.0,0.0,37,0.00,,,0.00,VWS V14.00,2013-03-09 10:28:00,
2013-03-09 05:33:00,33.6,10.1,30.29,WSW,257,0.0,0.0,37,0.00,,,0.00,VWS V14.00,2013-03-09 10:33:00,
2013-03-09 05:38:00,33.4,10.0,30.29,WSW,257,0.0,0.0,37,0.00,,,0.00,VWS V14.00,2013-03-09 10:38:00,
2013-03-09 05:43:00,33.3,9.8,30.29,WSW,257,0.0,0.0,37,0.00,,,0.00,VWS V14.00,2013-03-09 10:43:00,
2013-03-09 05:48:00,33.3,9.8,30.29,WSW,257,0.0,0.0,37,0.00,,,0.00,VWS V14.00,2013-03-09 10:48:00,
2013-03-09 05:53:00,33.3,10.4,30.29,WSW,257,0.0,0.0,38,0.00,,,0.00,VWS V14.00,2013-03-09 10:53:00,
2013-03-09 05:58:00,33.3,10.4,30.29,WSW,257,0.0,0.0,38,0.00,,,0.00,VWS V14.00,2013-03-09 10:58:00,
2013-03-09 06:03:00,33.3,11.0,30.29,WSW,257,0.0,0.0,39,0.00,,,0.00,VWS V14.00,2013-03-09 11:03:00,
2013-03-09 06:08:00,33.3,11.0,30.29,WSW,257,0.0,0.0,39,0.00,,,0.00,VWS V14.00,2013-03-09 11:08:00,
2013-03-09 06:13:00,33.1,11.4,30.29,WSW,257,0.0,0.0,40,0.00,,,0.00,VWS V14.00,2013-03-09 11:13:00,
2013-03-09 06:18:00,33.1,11.4,30.29,WSW,257,0.0,0.0,40,0.00,,,0.00,VWS V14.00,2013-03-09 11:18:00,
2013-03-09 06:23:00,33.1,11.4,30.29,WSW,257,0.0,0.0,40,0.00,,,0.00,VWS V14.00,2013-03-09 11:23:00,
2013-03-09 06:28:00,33.1,11.4,30.29,WSW,257,0.0,0.0,40,0.00,,,0.00,VWS V14.00,2013-03-09 11:28:00,
2013-03-09 06:33:00,33.1,11.4,30.29,WSW,257,0.0,0.0,40,0.00,,,0.00,VWS V14.00,2013-03-09 11:33:00,
2013-03-09 06:38:00,32.9,11.2,30.32,WSW,257,0.0,0.0,40,0.00,,,0.00,VWS V14.00,2013-03-09 11:38:00,
2013-03-09 06:43:00,32.7,11.1,30.32,WSW,257,0.0,0.0,40,0.00,,,0.00,VWS V14.00,2013-03-09 11:43:00,
2013-03-09 06:48:00,32.7,11.6,30.32,WSW,254,0.0,0.0,41,0.00,,,0.00,VWS V14.00,2013-03-09 11:48:00,
2013-03-09 06:53:00,32.9,11.2,30.32,WSW,254,0.0,0.0,40,0.00,,,0.00,VWS V14.00,2013-03-09 11:53:00,
2013-03-09 06:58:00,32.9,11.2,30.32,WSW,254,0.0,0.0,40,0.00,,,0.00,VWS V14.00,2013-03-09 11:58:00,
2013-03-09 07:03:00,32.9,11.2,30.32,WSW,254,0.0,0.0,40,0.00,,,0.00,VWS V14.00,2013-03-09 12:03:00,
2013-03-09 07:08:00,33.1,11.4,30.32,WSW,254,0.0,0.0,40,0.00,,,0.00,VWS V14.00,2013-03-09 12:08:00,
2013-03-09 07:13:00,33.3,11.6,30.32,WSW,254,0.0,0.0,40,0.00,,,0.00,VWS V14.00,2013-03-09 12:13:00,
2013-03-09 07:18:00,33.4,11.7,30.32,WSW,254,0.0,0.0,40,0.00,,,0.00,VWS V14.00,2013-03-09 12:18:00,
2013-03-09 07:23:00,33.4,11.7,30.32,WSW,254,0.0,0.0,40,0.00,,,0.00,VWS V14.00,2013-03-09 12:23:00,
2013-03-09 07:28:00,33.4,11.7,30.32,WSW,254,0.0,0.0,40,0.00,,,0.00,VWS V14.00,2013-03-09 12:28:00,
2013-03-09 07:33:00,33.6,11.9,30.32,WSW,254,0.0,0.0,40,0.00,,,0.00,VWS V14.00,2013-03-09 12:33:00,
2013-03-09 07:38:00,33.6,11.9,30.32,West,277,0.0,0.0,40,0.00,,,0.00,VWS V14.00,2013-03-09 12:38:00,
2013-03-09 07:43:00,33.8,12.1,30.32,SSE,155,0.0,0.0,40,0.00,,,0.00,VWS V14.00,2013-03-09 12:43:00,
2013-03-09 07:48:00,34.0,12.2,30.32,SSE,150,0.0,0.0,40,0.00,,,0.00,VWS V14.00,2013-03-09 12:48:00,
2013-03-09 07:53:00,34.2,12.4,30.32,ESE,102,0.0,0.0,40,0.00,,,0.00,VWS V14.00,2013-03-09 12:53:00,
2013-03-09 07:58:00,34.5,12.7,30.32,NE,40,0.0,0.0,40,0.00,,,0.00,VWS V14.00,2013-03-09 12:58:00,
2013-03-09 08:03:00,34.9,13.0,30.35,ESE,103,0.0,0.0,40,0.00,,,0.00,VWS V14.00,2013-03-09 13:03:00,
2013-03-09 08:08:00,35.2,13.4,30.35,ESE,119,0.0,0.0,40,0.00,,,0.00,VWS V14.00,2013-03-09 13:08:00,
2013-03-09 08:13:00,35.6,13.7,30.35,SW,217,0.0,0.0,40,0.00,,,0.00,VWS V14.00,2013-03-09 13:13:00,
2013-03-09 08:18:00,36.0,14.0,30.35,East,100,0.0,0.0,40,0.00,,,0.00,VWS V14.00,2013-03-09 13:18:00,
2013-03-09 08:23:00,36.3,13.8,30.35,ESE,104,0.0,3.1,39,0.00,,,0.00,VWS V14.00,2013-03-09 13:23:00,
2013-03-09 08:28:00,36.9,14.2,30.35,ESE,104,0.0,0.0,39,0.00,,,0.00,VWS V14.00,2013-03-09 13:28:00,
2013-03-09 08:33:00,37.4,14.7,30.35,SE,124,0.0,2.7,39,0.00,,,0.00,VWS V14.00,2013-03-09 13:33:00,
2013-03-09 08:38:00,37.9,14.6,30.35,ESE,114,0.0,0.0,38,0.00,,,0.00,VWS V14.00,2013-03-09 13:38:00,
2013-03-09 08:43:00,38.5,15.1,30.35,East,81,2.2,2.2,38,0.00,,,0.00,VWS V14.00,2013-03-09 13:43:00,
2013-03-09 08:48:00,39.0,15.0,30.35,SE,136,0.0,0.0,37,0.00,,,0.00,VWS V14.00,2013-03-09 13:48:00,
2013-03-09 08:53:00,39.6,13.5,30.35,East,88,0.0,0.0,34,0.00,,,0.00,VWS V14.00,2013-03-09 13:53:00,
2013-03-09 08:58:00,40.3,13.5,30.35,SSW,206,0.0,0.0,33,0.00,,,0.00,VWS V14.00,2013-03-09 13:58:00,
2013-03-09 09:03:00,41.2,12.9,30.35,SW,219,0.0,0.0,31,0.00,,,0.00,VWS V14.00,2013-03-09 14:03:00,
2013-03-09 09:08:00,41.9,13.5,30.35,SW,219,0.0,0.0,31,0.00,,,0.00,VWS V14.00,2013-03-09 14:08:00,
2013-03-09 09:13:00,42.4,13.2,30.35,SW,221,0.0,0.0,30,0.00,,,0.00,VWS V14.00,2013-03-09 14:13:00,
2013-03-09 09:18:00,43.0,13.7,30.35,SW,223,0.0,0.0,30,0.00,,,0.00,VWS V14.00,2013-03-09 14:18:00,
2013-03-09 09:23:00,43.3,13.2,30.35,SW,229,4.0,4.0,29,0.00,,,0.00,VWS V14.00,2013-03-09 14:23:00,
2013-03-09 09:28:00,43.5,13.4,30.35,East,80,0.0,0.0,29,0.00,,,0.00,VWS V14.00,2013-03-09 14:28:00,
2013-03-09 09:33:00,43.7,13.5,30.35,NE,39,0.0,0.0,29,0.00,,,0.00,VWS V14.00,2013-03-09 14:33:00,
2013-03-09 09:38:00,44.1,13.9,30.35,WSW,237,3.6,4.0,29,0.00,,,0.00,VWS V14.00,2013-03-09 14:38:00,
2013-03-09 09:43:00,44.6,13.5,30.35,SW,216,0.0,0.0,28,0.00,,,0.00,VWS V14.00,2013-03-09 14:43:00,
2013-03-09 09:48:00,45.1,14.0,30.32,WSW,237,5.4,5.4,28,0.00,,,0.00,VWS V14.00,2013-03-09 14:48:00,
2013-03-09 09:53:00,45.7,14.5,30.32,West,267,0.0,0.0,28,0.00,,,0.00,VWS V14.00,2013-03-09 14:53:00,
2013-03-09 09:58:00,46.0,14.8,30.32,SW,235,0.0,0.0,28,0.00,,,0.00,VWS V14.00,2013-03-09 14:58:00,
2013-03-09 10:03:00,46.9,14.7,30.32,SW,228,2.7,3.1,27,0.00,,,0.00,VWS V14.00,2013-03-09 15:03:00,
2013-03-09 10:08:00,47.3,15.0,30.32,SSW,205,2.7,3.1,27,0.00,,,0.00,VWS V14.00,2013-03-09 15:08:00,
2013-03-09 10:13:00,47.8,15.5,30.32,SW,226,4.0,4.0,27,0.00,,,0.00,VWS V14.00,2013-03-09 15:13:00,
2013-03-09 10:19:00,48.2,14.9,30.32,SW,234,2.7,2.7,26,0.00,,,0.00,VWS V14.00,2013-03-09 15:19:00,
2013-03-09 10:24:00,48.6,13.4,30.32,WSW,251,3.1,3.1,24,0.00,,,0.00,VWS V14.00,2013-03-09 15:24:00,
2013-03-09 10:29:00,48.9,13.7,30.32,SSW,196,0.0,0.0,24,0.00,,,0.00,VWS V14.00,2013-03-09 15:29:00,
2013-03-09 10:34:00,49.5,14.2,30.32,WNW,288,0.0,0.0,24,0.00,,,0.00,VWS V14.00,2013-03-09 15:34:00,
2013-03-09 10:39:00,50.0,14.6,30.32,WSW,246,4.0,4.0,24,0.00,,,0.00,VWS V14.00,2013-03-09 15:39:00,
2013-03-09 10:44:00,50.2,11.8,30.32,SW,233,2.7,2.7,21,0.00,,,0.00,VWS V14.00,2013-03-09 15:44:00,
2013-03-09 10:49:00,50.5,12.1,30.32,WSW,246,0.0,2.2,21,0.00,,,0.00,VWS V14.00,2013-03-09 15:49:00,
2013-03-09 10:54:00,50.9,12.4,30.32,SW,223,3.1,3.6,21,0.00,,,0.00,VWS V14.00,2013-03-09 15:54:00,
2013-03-09 10:59:00,51.3,12.7,30.32,SW,219,2.7,3.1,21,0.00,,,0.00,VWS V14.00,2013-03-09 15:59:00,
2013-03-09 11:04:00,51.8,13.1,30.32,SE,125,3.1,4.0,21,0.00,,,0.00,VWS V14.00,2013-03-09 16:04:00,
2013-03-09 11:09:00,52.3,13.6,30.32,SW,226,0.0,3.6,21,0.00,,,0.00,VWS V14.00,2013-03-09 16:09:00,
2013-03-09 11:14:00,52.9,14.0,30.32,NNW,348,0.0,0.0,21,0.00,,,0.00,VWS V14.00,2013-03-09 16:14:00,
2013-03-09 11:19:00,53.2,10.9,30.29,West,278,0.0,0.0,18,0.00,,,0.00,VWS V14.00,2013-03-09 16:19:00,
2013-03-09 11:24:00,53.6,11.1,30.29,NW,306,0.0,0.0,18,0.00,,,0.00,VWS V14.00,2013-03-09 16:24:00,
2013-03-09 11:29:00,54.3,11.7,30.29,East,99,0.0,0.0,18,0.00,,,0.00,VWS V14.00,2013-03-09 16:29:00,
2013-03-09 11:34:00,55.0,14.7,30.26,SW,232,0.0,0.0,20,0.00,,,0.00,VWS V14.00,2013-03-09 16:34:00,
2013-03-09 11:39:00,55.2,12.5,30.26,North,0,0.0,3.1,18,0.00,,,0.00,VWS V14.00,2013-03-09 16:39:00,
2013-03-09 11:44:00,55.8,11.6,30.26,SSW,198,3.1,3.6,17,0.00,,,0.00,VWS V14.00,2013-03-09 16:44:00,
2013-03-09 11:49:00,55.8,11.6,30.26,SSW,213,0.0,0.0,17,0.00,,,0.00,VWS V14.00,2013-03-09 16:49:00,
2013-03-09 11:54:00,55.9,11.8,30.26,SE,129,0.0,0.0,17,0.00,,,0.00,VWS V14.00,2013-03-09 16:54:00,
2013-03-09 11:59:00,55.9,11.8,30.26,West,265,0.0,0.0,17,0.00,,,0.00,VWS V14.00,2013-03-09 16:59:00,
2013-03-09 12:04:00,56.3,12.1,30.23,ENE,73,0.0,2.7,17,0.00,,,0.00,VWS V14.00,2013-03-09 17:04:00,
2013-03-09 12:09:00,56.7,12.4,30.23,North,350,0.0,2.7,17,0.00,,,0.00,VWS V14.00,2013-03-09 17:09:00,
2013-03-09 12:14:00,56.7,12.4,30.23,SSW,204,2.7,3.6,17,0.00,,,0.00,VWS V14.00,2013-03-09 17:14:00,
2013-03-09 12:19:00,57.2,12.8,30.23,SSW,196,0.0,2.2,17,0.00,,,0.00,VWS V14.00,2013-03-09 17:19:00,
2013-03-09 12:24:00,57.6,13.1,30.23,West,268,0.0,0.0,17,0.00,,,0.00,VWS V14.00,2013-03-09 17:24:00,
2013-03-09 12:29:00,57.9,13.4,30.23,South,184,0.0,0.0,17,0.00,,,0.00,VWS V14.00,2013-03-09 17:29:00,
2013-03-09 12:34:00,57.9,13.4,30.23,SW,224,3.1,3.1,17,0.00,,,0.00,VWS V14.00,2013-03-09 17:34:00,
2013-03-09 12:39:00,58.5,13.8,30.23,NNW,335,3.1,3.1,17,0.00,,,0.00,VWS V14.00,2013-03-09 17:39:00,
2013-03-09 12:44:00,59.4,14.6,30.23,North,353,0.0,3.6,17,0.00,,,0.00,VWS V14.00,2013-03-09 17:44:00,
2013-03-09 12:49:00,59.5,14.7,30.20,NW,325,0.0,0.0,17,0.00,,,0.00,VWS V14.00,2013-03-09 17:49:00,
2013-03-09 12:54:00,59.4,10.2,30.20,East,98,4.5,4.5,14,0.00,,,0.00,VWS V14.00,2013-03-09 17:54:00,
2013-03-09 12:59:00,58.8,14.1,30.20,SSE,164,0.0,0.0,17,0.00,,,0.00,VWS V14.00,2013-03-09 17:59:00,
2013-03-09 13:05:00,59.4,14.6,30.20,ESE,117,4.0,4.5,17,0.00,,,0.00,VWS V14.00,2013-03-09 18:05:00,
2013-03-09 13:10:00,59.5,14.7,30.20,East,83,2.7,2.7,17,0.00,,,0.00,VWS V14.00,2013-03-09 18:10:00,
2013-03-09 13:15:00,60.1,10.8,30.20,SE,143,0.0,3.1,14,0.00,,,0.00,VWS V14.00,2013-03-09 18:15:00,
2013-03-09 13:20:00,60.3,15.3,30.17,SW,216,0.0,0.0,17,0.00,,,0.00,VWS V14.00,2013-03-09 18:20:00,
2013-03-09 13:25:00,60.6,11.2,30.17,ESE,117,0.0,2.2,14,0.00,,,0.00,VWS V14.00,2013-03-09 18:25:00,
2013-03-09 13:30:00,60.8,11.3,30.17,West,271,0.0,0.0,14,0.00,,,0.00,VWS V14.00,2013-03-09 18:30:00,
2013-03-09 13:35:00,60.8,11.3,30.17,SSE,159,3.1,4.0,14,0.00,,,0.00,VWS V14.00,2013-03-09 18:35:00,
2013-03-09 13:40:00,60.1,10.8,30.17,WSW,242,2.7,3.6,14,0.00,,,0.00,VWS V14.00,2013-03-09 18:40:00,
2013-03-09 13:45:00,60.3,10.9,30.17,SW,218,2.7,3.1,14,0.00,,,0.00,VWS V14.00,2013-03-09 18:45:00,
2013-03-09 13:50:00,60.8,11.3,30.17,WSW,241,3.1,3.1,14,0.00,,,0.00,VWS V14.00,2013-03-09 18:50:00,
2013-03-09 13:55:00,61.0,11.5,30.17,ENE,71,0.0,2.2,14,0.00,,,0.00,VWS V14.00,2013-03-09 18:55:00,
2013-03-09 14:00:00,61.0,11.5,30.17,WNW,299,0.0,0.0,14,0.00,,,0.00,VWS V14.00,2013-03-09 19:00:00,
2013-03-09 14:05:00,61.7,12.1,30.17,WNW,301,0.0,0.0,14,0.00,,,0.00,VWS V14.00,2013-03-09 19:05:00,
2013-03-09 14:10:00,62.2,12.5,30.17,NNW,337,0.0,0.0,14,0.00,,,0.00,VWS V14.00,2013-03-09 19:10:00,
2013-03-09 14:15:00,62.1,12.3,30.17,West,270,0.0,2.7,14,0.00,,,0.00,VWS V14.00,2013-03-09 19:15:00,
2013-03-09 14:20:00,62.2,12.5,30.17,SSW,202,0.0,2.7,14,0.00,,,0.00,VWS V14.00,2013-03-09 19:20:00,
2013-03-09 14:25:00,61.9,12.2,30.17,North,353,3.6,3.6,14,0.00,,,0.00,VWS V14.00,2013-03-09 19:25:00,
2013-03-09 14:30:00,61.7,12.1,30.17,NNW,342,0.0,0.0,14,0.00,,,0.00,VWS V14.00,2013-03-09 19:30:00,
2013-03-09 14:35:00,61.9,12.2,30.17,North,5,0.0,0.0,14,0.00,,,0.00,VWS V14.00,2013-03-09 19:35:00,
2013-03-09 14:40:00,62.1,12.3,30.17,West,273,0.0,2.7,14,0.00,,,0.00,VWS V14.00,2013-03-09 19:40:00,
2013-03-09 14:45:00,62.2,12.5,30.17,NW,310,0.0,0.0,14,0.00,,,0.00,VWS V14.00,2013-03-09 19:45:00,
2013-03-09 14:50:00,62.4,12.6,30.14,WSW,250,0.0,0.0,14,0.00,,,0.00,VWS V14.00,2013-03-09 19:50:00,
2013-03-09 14:55:00,62.2,12.5,30.14,NW,306,0.0,0.0,14,0.00,,,0.00,VWS V14.00,2013-03-09 19:55:00,
2013-03-09 15:00:00,62.4,12.6,30.14,West,259,0.0,0.0,14,0.00,,,0.00,VWS V14.00,2013-03-09 20:00:00,
2013-03-09 15:05:00,62.6,11.1,30.17,NNW,345,0.0,0.0,13,0.00,,,0.00,VWS V14.00,2013-03-09 20:05:00,
2013-03-09 15:10:00,62.2,12.5,30.17,SW,223,2.7,4.9,14,0.00,,,0.00,VWS V14.00,2013-03-09 20:10:00,
2013-03-09 15:15:00,61.7,12.1,30.17,SW,218,3.1,3.1,14,0.00,,,0.00,VWS V14.00,2013-03-09 20:15:00,
2013-03-09 15:20:00,61.5,11.9,30.17,WSW,240,0.0,0.0,14,0.00,,,0.00,VWS V14.00,2013-03-09 20:20:00,
2013-03-09 15:25:00,61.2,11.6,30.17,NNE,16,3.6,3.6,14,0.00,,,0.00,VWS V14.00,2013-03-09 20:25:00,
2013-03-09 15:30:00,60.8,11.3,30.17,East,90,0.0,0.0,14,0.00,,,0.00,VWS V14.00,2013-03-09 20:30:00,
2013-03-09 15:35:00,60.6,11.2,30.17,North,5,0.0,0.0,14,0.00,,,0.00,VWS V14.00,2013-03-09 20:35:00,
2013-03-09 15:40:00,60.6,11.2,30.17,WSW,251,0.0,0.0,14,0.00,,,0.00,VWS V14.00,2013-03-09 20:40:00,
2013-03-09 15:45:00,60.8,11.3,30.17,NNW,340,0.0,0.0,14,0.00,,,0.00,VWS V14.00,2013-03-09 20:45:00,
2013-03-09 15:50:00,60.4,11.0,30.17,NNW,343,0.0,0.0,14,0.00,,,0.00,VWS V14.00,2013-03-09 20:50:00,
2013-03-09 15:55:00,60.1,10.8,30.17,NE,55,0.0,0.0,14,0.00,,,0.00,VWS V14.00,2013-03-09 20:55:00,
2013-03-09 16:00:00,60.1,10.8,30.17,NE,55,0.0,0.0,14,0.00,,,0.00,VWS V14.00,2013-03-09 21:00:00,
2013-03-09 16:05:00,60.1,10.8,30.17,WSW,240,3.6,3.6,14,0.00,,,0.00,VWS V14.00,2013-03-09 21:05:00,
2013-03-09 16:10:00,60.1,10.8,30.17,WSW,248,0.0,0.0,14,0.00,,,0.00,VWS V14.00,2013-03-09 21:10:00,
2013-03-09 16:15:00,59.9,10.6,30.17,WSW,248,0.0,0.0,14,0.00,,,0.00,VWS V14.00,2013-03-09 21:15:00,
2013-03-09 16:21:00,59.7,10.5,30.17,WSW,247,2.7,2.7,14,0.00,,,0.00,VWS V14.00,2013-03-09 21:21:00,
2013-03-09 16:26:00,59.5,10.3,30.17,WSW,257,0.0,0.0,14,0.00,,,0.00,VWS V14.00,2013-03-09 21:26:00,
2013-03-09 16:31:00,59.4,10.2,30.17,SW,221,0.0,0.0,14,0.00,,,0.00,VWS V14.00,2013-03-09 21:31:00,
2013-03-09 16:36:00,59.2,10.0,30.17,SW,221,0.0,0.0,14,0.00,,,0.00,VWS V14.00,2013-03-09 21:36:00,
2013-03-09 16:41:00,59.0,9.9,30.17,SW,229,0.0,0.0,14,0.00,,,0.00,VWS V14.00,2013-03-09 21:41:00,
2013-03-09 16:46:00,58.8,9.8,30.17,SW,229,0.0,0.0,14,0.00,,,0.00,VWS V14.00,2013-03-09 21:46:00,
2013-03-09 16:51:00,58.6,9.6,30.17,SW,229,0.0,0.0,14,0.00,,,0.00,VWS V14.00,2013-03-09 21:51:00,
2013-03-09 16:56:00,58.5,9.5,30.17,SW,229,0.0,0.0,14,0.00,,,0.00,VWS V14.00,2013-03-09 21:56:00,
2013-03-09 17:01:00,58.1,9.2,30.17,SW,229,0.0,0.0,14,0.00,,,0.00,VWS V14.00,2013-03-09 22:01:00,
2013-03-09 17:06:00,57.9,9.0,30.17,SW,229,0.0,0.0,14,0.00,,,0.00,VWS V14.00,2013-03-09 22:06:00,
2013-03-09 17:11:00,57.7,8.9,30.17,SW,229,0.0,0.0,14,0.00,,,0.00,VWS V14.00,2013-03-09 22:11:00,
2013-03-09 17:16:00,57.6,8.7,30.17,WSW,246,0.0,0.0,14,0.00,,,0.00,VWS V14.00,2013-03-09 22:16:00,
2013-03-09 17:21:00,57.2,8.4,30.17,WSW,246,0.0,0.0,14,0.00,,,0.00,VWS V14.00,2013-03-09 22:21:00,
2013-03-09 17:26:00,57.0,9.8,30.17,WSW,246,0.0,0.0,15,0.00,,,0.00,VWS V14.00,2013-03-09 22:26:00,
2013-03-09 17:31:00,56.7,9.6,30.17,WSW,246,0.0,0.0,15,0.00,,,0.00,VWS V14.00,2013-03-09 22:31:00,
2013-03-09 17:36:00,56.3,9.3,30.20,WSW,246,0.0,0.0,15,0.00,,,0.00,VWS V14.00,2013-03-09 22:36:00,
2013-03-09 17:41:00,55.9,9.0,30.20,WSW,246,0.0,0.0,15,0.00,,,0.00,VWS V14.00,2013-03-09 22:41:00,
2013-03-09 17:46:00,55.6,8.7,30.20,WSW,246,0.0,0.0,15,0.00,,,0.00,VWS V14.00,2013-03-09 22:46:00,
2013-03-09 17:51:00,55.2,8.4,30.20,WSW,246,0.0,0.0,15,0.00,,,0.00,VWS V14.00,2013-03-09 22:51:00,
2013-03-09 17:56:00,54.7,8.0,30.20,WSW,246,0.0,0.0,15,0.00,,,0.00,VWS V14.00,2013-03-09 22:56:00,
2013-03-09 18:01:00,54.5,7.8,30.20,WSW,246,0.0,0.0,15,0.00,,,0.00,VWS V14.00,2013-03-09 23:01:00,
2013-03-09 18:06:00,54.1,7.5,30.20,WSW,246,0.0,0.0,15,0.00,,,0.00,VWS V14.00,2013-03-09 23:06:00,
2013-03-09 18:11:00,54.0,7.4,30.20,WSW,246,0.0,0.0,15,0.00,,,0.00,VWS V14.00,2013-03-09 23:11:00,
2013-03-09 18:16:00,53.8,7.2,30.20,WSW,246,0.0,0.0,15,0.00,,,0.00,VWS V14.00,2013-03-09 23:16:00,
2013-03-09 18:21:00,53.4,8.4,30.20,WSW,246,0.0,0.0,16,0.00,,,0.00,VWS V14.00,2013-03-09 23:21:00,
2013-03-09 18:26:00,53.1,8.1,30.20,WSW,246,0.0,0.0,16,0.00,,,0.00,VWS V14.00,2013-03-09 23:26:00,
2013-03-09 18:31:00,52.7,7.8,30.20,WSW,246,0.0,0.0,16,0.00,,,0.00,VWS V14.00,2013-03-09 23:31:00,
2013-03-09 18:36:00,52.7,7.8,30.20,WSW,246,0.0,0.0,16,0.00,,,0.00,VWS V14.00,2013-03-09 23:36:00,
2013-03-09 18:41:00,52.5,7.6,30.20,WSW,246,0.0,0.0,16,0.00,,,0.00,VWS V14.00,2013-03-09 23:41:00,
2013-03-09 18:47:00,52.3,7.5,30.20,WSW,246,0.0,0.0,16,0.00,,,0.00,VWS V14.00,2013-03-09 23:47:00,
2013-03-09 18:52:00,52.0,7.2,30.20,WSW,246,0.0,0.0,16,0.00,,,0.00,VWS V14.00,2013-03-09 23:52:00,
2013-03-09 18:57:00,51.6,6.9,30.20,WSW,246,0.0,0.0,16,0.00,,,0.00,VWS V14.00,2013-03-09 23:57:00,
2013-03-09 19:02:00,51.4,6.8,30.20,WSW,246,0.0,0.0,16,0.00,,,0.00,VWS V14.00,2013-03-10 00:02:00,
2013-03-09 19:07:00,51.1,6.5,30.20,WSW,246,0.0,0.0,16,0.00,,,0.00,VWS V14.00,2013-03-10 00:07:00,
2013-03-09 19:12:00,50.9,6.3,30.20,WSW,246,0.0,0.0,16,0.00,,,0.00,VWS V14.00,2013-03-10 00:12:00,
2013-03-09 19:17:00,50.5,6.0,30.20,WSW,246,0.0,0.0,16,0.00,,,0.00,VWS V14.00,2013-03-10 00:17:00,
2013-03-09 19:22:00,50.4,5.9,30.23,WSW,246,0.0,0.0,16,0.00,,,0.00,VWS V14.00,2013-03-10 00:22:00,
2013-03-09 19:27:00,50.2,5.7,30.23,WSW,246,0.0,0.0,16,0.00,,,0.00,VWS V14.00,2013-03-10 00:27:00,
2013-03-09 19:32:00,50.0,5.6,30.23,WSW,246,0.0,0.0,16,0.00,,,0.00,VWS V14.00,2013-03-10 00:32:00,
2013-03-09 19:37:00,49.8,5.4,30.23,WSW,246,0.0,0.0,16,0.00,,,0.00,VWS V14.00,2013-03-10 00:37:00,
2013-03-09 19:42:00,49.6,5.3,30.23,WSW,246,0.0,0.0,16,0.00,,,0.00,VWS V14.00,2013-03-10 00:42:00,
2013-03-09 19:47:00,49.5,5.2,30.23,WSW,246,0.0,0.0,16,0.00,,,0.00,VWS V14.00,2013-03-10 00:47:00,
2013-03-09 19:52:00,49.1,4.9,30.23,WSW,246,0.0,0.0,16,0.00,,,0.00,VWS V14.00,2013-03-10 00:52:00,
2013-03-09 19:57:00,48.9,4.7,30.23,WSW,246,0.0,0.0,16,0.00,,,0.00,VWS V14.00,2013-03-10 00:57:00,
2013-03-09 20:02:00,48.7,4.6,30.23,WSW,246,0.0,0.0,16,0.00,,,0.00,VWS V14.00,2013-03-10 01:02:00,
2013-03-09 20:07:00,48.7,8.3,30.23,WSW,246,0.0,0.0,19,0.00,,,0.00,VWS V14.00,2013-03-10 01:07:00,
2013-03-09 20:12:00,48.6,8.2,30.23,WSW,246,0.0,0.0,19,0.00,,,0.00,VWS V14.00,2013-03-10 01:12:00,
2013-03-09 20:17:00,48.6,8.2,30.23,WSW,246,0.0,0.0,19,0.00,,,0.00,VWS V14.00,2013-03-10 01:17:00,
2013-03-09 20:22:00,48.4,8.0,30.23,WSW,246,0.0,0.0,19,0.00,,,0.00,VWS V14.00,2013-03-10 01:22:00,
2013-03-09 20:27:00,48.2,7.9,30.23,WSW,246,0.0,0.0,19,0.00,,,0.00,VWS V14.00,2013-03-10 01:27:00,
2013-03-09 20:32:00,47.8,7.6,30.23,WSW,246,0.0,0.0,19,0.00,,,0.00,VWS V14.00,2013-03-10 01:32:00,
2013-03-09 20:37:00,47.8,7.6,30.23,WSW,246,0.0,0.0,19,0.00,,,0.00,VWS V14.00,2013-03-10 01:37:00,
2013-03-09 20:42:00,47.7,7.4,30.23,WSW,246,0.0,0.0,19,0.00,,,0.00,VWS V14.00,2013-03-10 01:42:00,
2013-03-09 20:47:00,47.3,7.1,30.23,WSW,246,0.0,0.0,19,0.00,,,0.00,VWS V14.00,2013-03-10 01:47:00,
2013-03-09 20:52:00,47.1,7.0,30.23,WSW,246,0.0,0.0,19,0.00,,,0.00,VWS V14.00,2013-03-10 01:52:00,
2013-03-09 20:57:00,46.9,6.8,30.23,WSW,246,0.0,0.0,19,0.00,,,0.00,VWS V14.00,2013-03-10 01:57:00,
2013-03-09 21:02:00,46.9,6.8,30.23,WSW,246,0.0,0.0,19,0.00,,,0.00,VWS V14.00,2013-03-10 02:02:00,
2013-03-09 21:07:00,46.8,6.7,30.23,WSW,246,0.0,0.0,19,0.00,,,0.00,VWS V14.00,2013-03-10 02:07:00,
2013-03-09 21:12:00,46.6,6.5,30.23,WSW,246,0.0,0.0,19,0.00,,,0.00,VWS V14.00,2013-03-10 02:12:00,
2013-03-09 21:17:00,46.4,6.4,30.23,WSW,246,0.0,0.0,19,0.00,,,0.00,VWS V14.00,2013-03-10 02:17:00,
2013-03-09 21:23:00,46.0,7.2,30.26,WSW,246,0.0,0.0,20,0.00,,,0.00,VWS V14.00,2013-03-10 02:23:00,
2013-03-09 21:28:00,45.9,3.5,30.26,WSW,246,0.0,0.0,17,0.00,,,0.00,VWS V14.00,2013-03-10 02:28:00,
2013-03-09 21:33:00,45.7,6.9,30.26,WSW,246,0.0,0.0,20,0.00,,,0.00,VWS V14.00,2013-03-10 02:33:00,
2013-03-09 21:38:00,45.5,6.8,30.26,WSW,246,0.0,0.0,20,0.00,,,0.00,VWS V14.00,2013-03-10 02:38:00,
2013-03-09 21:43:00,45.5,6.8,30.26,WSW,246,0.0,0.0,20,0.00,,,0.00,VWS V14.00,2013-03-10 02:43:00,
2013-03-09 21:48:00,45.1,6.5,30.26,WSW,246,0.0,0.0,20,0.00,,,0.00,VWS V14.00,2013-03-10 02:48:00,
2013-03-09 21:53:00,45.0,6.3,30.26,WSW,246,0.0,0.0,20,0.00,,,0.00,VWS V14.00,2013-03-10 02:53:00,
2013-03-09 21:58:00,44.8,6.2,30.26,WSW,246,0.0,0.0,20,0.00,,,0.00,VWS V14.00,2013-03-10 02:58:00,
2013-03-09 22:03:00,44.6,6.0,30.26,WSW,246,0.0,0.0,20,0.00,,,0.00,VWS V14.00,2013-03-10 03:03:00,
2013-03-09 22:08:00,44.4,5.9,30.26,WSW,246,0.0,0.0,20,0.00,,,0.00,VWS V14.00,2013-03-10 03:08:00,
2013-03-09 22:13:00,44.2,5.7,30.26,WSW,246,0.0,0.0,20,0.00,,,0.00,VWS V14.00,2013-03-10 03:13:00,
2013-03-09 22:18:00,44.1,5.6,30.26,WSW,246,0.0,0.0,20,0.00,,,0.00,VWS V14.00,2013-03-10 03:18:00,
2013-03-09 22:23:00,43.9,8.5,30.26,WSW,246,0.0,0.0,23,0.00,,,0.00,VWS V14.00,2013-03-10 03:23:00,
2013-03-09 22:28:00,43.7,8.3,30.26,WSW,246,0.0,0.0,23,0.00,,,0.00,VWS V14.00,2013-03-10 03:28:00,
2013-03-09 22:33:00,43.5,10.0,30.26,WSW,246,0.0,0.0,25,0.00,,,0.00,VWS V14.00,2013-03-10 03:33:00,
2013-03-09 22:38:00,43.2,9.7,30.26,WSW,246,0.0,0.0,25,0.00,,,0.00,VWS V14.00,2013-03-10 03:38:00,
2013-03-09 22:43:00,43.0,9.6,30.26,WSW,246,0.0,0.0,25,0.00,,,0.00,VWS V14.00,2013-03-10 03:43:00,
2013-03-09 22:48:00,43.0,9.6,30.26,WSW,246,0.0,0.0,25,0.00,,,0.00,VWS V14.00,2013-03-10 03:48:00,
2013-03-09 22:53:00,42.8,9.4,30.26,WSW,246,0.0,0.0,25,0.00,,,0.00,VWS V14.00,2013-03-10 03:53:00,
2013-03-09 22:58:00,42.8,9.4,30.26,WSW,246,0.0,0.0,25,0.00,,,0.00,VWS V14.00,2013-03-10 03:58:00,
2013-03-09 23:03:00,42.4,11.7,30.26,WSW,246,0.0,0.0,28,0.00,,,0.00,VWS V14.00,2013-03-10 04:03:00,
2013-03-09 23:08:00,42.1,12.1,30.26,WSW,246,0.0,0.0,29,0.00,,,0.00,VWS V14.00,2013-03-10 04:08:00,
2013-03-09 23:13:00,42.1,12.1,30.26,WSW,246,0.0,0.0,29,0.00,,,0.00,VWS V14.00,2013-03-10 04:13:00,
2013-03-09 23:18:00,41.9,12.0,30.26,WSW,246,0.0,0.0,29,0.00,,,0.00,VWS V14.00,2013-03-10 04:18:00,
2013-03-09 23:23:00,41.7,11.8,30.26,WSW,246,0.0,0.0,29,0.00,,,0.00,VWS V14.00,2013-03-10 04:23:00,
2013-03-09 23:28:00,41.9,12.0,30.26,WSW,246,0.0,0.0,29,0.00,,,0.00,VWS V14.00,2013-03-10 04:28:00,
2013-03-09 23:33:00,41.9,11.2,30.26,WSW,246,0.0,0.0,28,0.00,,,0.00,VWS V14.00,2013-03-10 04:33:00,
2013-03-09 23:38:00,42.1,11.3,30.26,WSW,246,0.0,0.0,28,0.00,,,0.00,VWS V14.00,2013-03-10 04:38:00,
2013-03-09 23:43:00,42.3,11.5,30.26,WSW,246,0.0,0.0,28,0.00,,,0.00,VWS V14.00,2013-03-10 04:43:00,
2013-03-09 23:48:00,42.3,11.5,30.26,WSW,246,0.0,0.0,28,0.00,,,0.00,VWS V14.00,2013-03-10 04:48:00,
2013-03-09 23:53:00,42.3,11.5,30.26,WSW,246,0.0,0.0,28,0.00,,,0.00,VWS V14.00,2013-03-10 04:53:00,
2013-03-09 23:58:00,42.1,11.3,30.26,WSW,246,0.0,0.0,28,0.00,,,0.00,VWS V14.00,2013-03-10 04:58:00,